Regional Weather Roundup
Issued by NWS

Home | Current Version | Previous Version | Text Only | Print | Product List | Glossary Off
Versions: 1 2 3 4 5 6 7 8 9 10 11 12 13 14 15 16 17 18 19 20 21 22 23 24 25 26 27

000
ASUS45 KBOI 222010
RWRID
WEATHER ROUNDUP FOR IDAHO
NATIONAL WEATHER SERVICE BOISE ID
200 PM MDT TUE APR 22 2014

NOTE: "FAIR" INDICATES FEW OR NO CLOUDS BELOW 12000 FEET
WITH NO SIGNIFICANT WEATHER AND/OR OBSTRUCTIONS TO VISIBILITY

IDZ012-014-222100-
SOUTHWEST IDAHO


CITY           SKY/WX    TMP DP  RH WIND       PRES   REMARKS
BOISE          CLOUDY    52  41  66 SE7       29.70F
CALDWELL       CLOUDY    43  34  70 SW3       29.76R
MOUNTAIN HOME  CLOUDY    50  48  93 SE7       29.73S
$$

IDZ016-017-222100-
SOUTHCENTRAL IDAHO


CITY           SKY/WX    TMP DP  RH WIND       PRES   REMARKS
BURLEY         LGT RAIN  48  39  71 W30G48    29.67R
JEROME         LGT RAIN  46  38  73 W30G39    29.73R
TWIN FALLS     LGT RAIN  47  37  68 W28G40    29.72R
$$

IDZ019>023-222100-
SOUTHEAST IDAHO


CITY           SKY/WX    TMP DP  RH WIND       PRES   REMARKS
IDAHO FALLS    CLOUDY    67  36  31 SW24      29.55F
POCATELLO      PTSUNNY   63  33  32 SW26G32   29.59F
REXBURG        CLOUDY    66  31  27 SW24G44   29.55F
$$

IDZ006-010-011-018-031-032-222100-
CENTRAL IDAHO MOUNTAINS


CITY           SKY/WX    TMP DP  RH WIND       PRES   REMARKS
MCCALL         CLOUDY    37  34  89 SW6       29.69F WCI  32
HAILEY         CLOUDY    52  34  50 NW12      29.65R
STANLEY          N/A     34  32  92 VRB5      29.73R WCI  30
SALMON         CLOUDY    48  43  81 W7        29.63R
CHALLIS        LGT RAIN  46  36  68 CALM      29.64R
$$

IDZ002-004-006-007-026-222100-
NORTHERN IDAHO


CITY           SKY/WX    TMP DP  RH WIND       PRES   REMARKS
LEWISTON       CLOUDY    49  42  77 S7        29.75S
LOWELL           N/A     52  47  83 S3        29.69F
COEUR D`ALENE  CLOUDY    45 N/A N/A SW14      29.72F
MULLAN PASS    SNOW      34  34 100 CALM      29.66S VSB 1/4
$$



USA.gov is the U.S. government's official web portal to all federal, state and local government web resources and services.